Location: Carnetin
(48.9010°N, 2.7059°E)
Time: 03:45:57
(UTC+00:00)

USA 229 - Pass Details

Date: 07 June 2022
Orbit: 938 x 1274 km, 63.4° (Epoch: 24 May)

Event Time Altitude Azimuth Distance (km) Brightness Sun altitude
Rises 20:50:25 0° 317° (NW) 3,935 9.3 -8.1°
Reaches altitude 10° 20:53:02 10° 319° (NW) 3,021 7.8 -8.4°
Maximum altitude 21:00:21 82° 48° (NE) 1,214 4.0 -9.1°
Enters shadow 21:07:48 12° 136° (SE) 3,092 5.4 -9.9°
